Regional Weather Roundup
Issued by NWS San Diego, CA

Home | Current Version | Previous Version | Text Only | Print | Product List | Glossary On
Versions: 1 2 3 4 5 6 7 8 9 10 11 12 13 14 15 16 17 18 19 20 21 22 23 24 25 26 27
000
ASUS46 KSGX 082311
RWRSGX

SAN DIEGO HOURLY WEATHER ROUNDUP
NATIONAL WEATHER SERVICE SAN DIEGO CA
300 PM PST THU DEC 08 2016

NOTE: "FAIR" INDICATES FEW OR NO CLOUDS BELOW 12,000 FEET WITH NO
SIGNIFICANT WEATHER AND/OR OBSTRUCTIONS TO VISIBILITY.

CAZ042-043-060-061-PZZ750-775-090000-

GREATER SAN DIEGO AREA

CITY           SKY/WX    TMP DP  RH WIND       PRES   REMARKS
SAN DIEGO AP   MOSUNNY   64  52  64 NW14      30.22F
NATIONAL CITY    N/A     64  54  69 NW5       30.21S
CHULA VISTA      N/A     64  55  70 W12       30.13S
IMPERIAL BEACH MOSUNNY   65  53  65 NW10      30.21F
BROWN FIELD    SUNNY     63  51  65 W10       30.20S
MIRAMAR MCAS   MOSUNNY   65  54  67 NW10      30.20S
MONTGOMERY FLD SUNNY     63  51  65 NW10      30.20F

$$

NORTH SAN DIEGO COUNTY

CITY           SKY/WX    TMP DP  RH WIND       PRES   REMARKS
CAMP PENDLETON MOSUNNY   64  52  64 SW8       30.19S
OCEANSIDE AP   SUNNY     64  54  69 W13       30.19S
OCEANSIDE HBR    N/A     61  56  82 NW9       30.23S
CARLSBAD       SUNNY     62  53  72 W8        30.19F
DEL MAR          N/A     65  57  73 CALM      30.23F
LA JOLLA SCRIP   N/A     61  57  86 SW3       30.21S
FALLBROOK        N/A     65  54  68 S3        30.19S
ESCONDIDO        N/A     63  52  66 W7        30.21F
SAN MARCOS       N/A     63  51  64 CALM      30.22F
POWAY            N/A     65  51  61 N5        30.23S

$$

EAST SAN DIEGO COUNTY

CITY           SKY/WX    TMP DP  RH WIND       PRES   REMARKS
RAMONA         SUNNY     62  47  57 W10       30.20S
JAMUL            N/A     64  47  53 CALM      30.22S
DESCANSO N       N/A     58  40  52 W6        30.20F
CAMPO            N/A     63  39  41 W8        30.16S

$$

ORANGE COUNTY AND THE LOS ANGELES BASIN

CITY           SKY/WX    TMP DP  RH WIND       PRES   REMARKS
JOHN WAYNE AP  MOSUNNY   64  43  46 W6        30.20F
LAGUNA BEACH     N/A     63  53  70 S3        30.16F
LAKE FOREST FR   N/A     65  44  44 W3        30.10S
HUNTINGTON BCH   N/A     63  55  74 W7        30.23S
LOS ALAMITOS   MOSUNNY   65  47  51 S7        30.20S
FULLERTON      SUNNY     67  45  45 SW3       30.19S
LONG BEACH     SUNNY     65  43  44 NW9       30.20S
L.A. AP        MOSUNNY   62  49  62 W9        30.21S
L.A. DOWNTOWN  SUNNY     65  42  43 W6        30.20S

$$

THE INLAND EMPIRE

CITY           SKY/WX    TMP DP  RH WIND       PRES   REMARKS
CORONA         SUNNY     67  44  43 W6        30.20S
CHINO          MOSUNNY   67  40  37 SW5       30.20F
ONTARIO        MOSUNNY   64  42  44 W6        30.19F
SAN BERNARDINO MOSUNNY   66  37  34 CALM      30.21S HAZE
RIVERSIDE AP   MOSUNNY   66  44  45 VRB5      30.20S
MORENO VALLEY    N/A     65  48  54 S6        28.30F
MARCH ARB      SUNNY     64  43  45 NW9       30.19S
HORSETHIEF CYN   N/A     64  39  38 NE1       30.24S
PERRIS           N/A     64  46  51 NW6       30.22S
HEMET EAST       N/A     64  38  37 CALM      30.28S
FRENCH VALLEY  NOT AVBL
TEMECULA         N/A     69  48  46 W3        30.20F

$$

SAN BERNARDINO AND RIVERSIDE COUNTY MOUNTAINS

CITY           SKY/WX    TMP DP  RH WIND       PRES   REMARKS
BIG BEAR AP    SUNNY     46  36  66 W9G22     30.26S
ANGELUS OAKS     N/A     48  35  60 CALM      30.18S
PINE COVE        N/A     46  35  66 W2        30.24S

$$

SOUTHERN DESERT INCLUDING THE COACHELLA VALLEY

CITY           SKY/WX    TMP DP  RH WIND       PRES   REMARKS
PALM SPRINGS   SUNNY     66  24  20 CALM      30.19F
PALM DESERT      N/A     68  29  23 CALM      30.68S
THERMAL        SUNNY     68  25  19 SE7       30.16F
BLYTHE         SUNNY     65   9  11 VRB3      30.19F
IMPERIAL AP    SUNNY     68  23  18 CALM      30.17F
EL CENTRO NAS  MOSUNNY   68  18  14 VRB3      30.19F
YUMA AZ        MOSUNNY   69  12  11 N7        30.18
MEXICALI       SUNNY     70  14  11 N3        30.19

$$

UPPER DESERT

CITY           SKY/WX    TMP DP  RH WIND       PRES   REMARKS
VICTORVILLE AP MOSUNNY   64  39  39 W6        30.18S
HESPERIA         N/A     65  41  42 W3        30.36S
PALMDALE       PTSUNNY   63  38  39 SW12      30.18S
LANCASTER      PTSUNNY   65  35  33 SW15      30.19R
EDWARDS AFB    PTSUNNY   64  38  38 W14       30.16R
DAGGETT        SUNNY     59  16  18 NE3       30.18S
29 PALMS N     MOSUNNY   59   9  13 S8        30.25F
NEEDLES        SUNNY     63   9  12 CALM      30.20F

$$

REGIONAL REPORTS

CITY           SKY/WX    TMP DP  RH WIND       PRES   REMARKS
SANTA BARBARA  PTSUNNY   60  56  86 W10       30.22R
SANDBERG       CLOUDY    54  30  40 SW9       30.25R
LAS VEGAS NV   MOSUNNY   52   5  15 VRB3      30.21S
PHOENIX AZ     MOSUNNY   66  40  38 CALM      30.15F
TIJUANA        SUNNY     63  46  55 W14       30.22F
ENSENADA NW      N/A     64  32  30 W7        30.15F

$$

OFFSHORE ISLANDS

CITY           SKY/WX    TMP DP  RH WIND       PRES   REMARKS
CATALINA ARPT  SUNNY     56  48  74 W9        30.22F
SAN CLEMENTE I MOSUNNY   61  52  72 NW12      30.24S
SAN NICOLAS IS MOSUNNY   63  53  70 W13       30.22F

$$

MARINE AND OFFSHORE BUOY REPORTS

STATION/POSITION SKY/WX   TEMP    WIND        PRES    SWELL
                          AIR SEA DIR/SP/G            HT/PER/DIR
                          (F)     (DEG/KT/KT) (MB)    (FT/S/D)
TANNER BANKS               59 62  310/ 10/ 12 1023.7R   2/310/12
S CLEMENTE BASIN           59 62  320/ 10/ 12 1023.1F   2/250/16
SAN NICOLAS IS.               59                N/A     2/280/12
SO. S. ROSA ISLA           58 59  230/  2/  4 1023.7R   3/260/16
W. S. BARBARA CH           57 56  200/  4/  4 1023.7R   3/230/15
M. S. BARBARA CH                  260/ 10/ 12 1023.9R
S. MONICA BASIN            59 60  280/ 10/ 12 1023.3S   2/230/15
S PEDRO CHANNEL               61                N/A     2/250/15
CMP PENDLETON NS              62                N/A     2/210/17
OCEANSIDE OFFSHR              62                N/A     2/210/15
TORREY PINES OTR              62                N/A     2/230/15
POINT LOMA SOUTH              62                N/A     2/210/15

$$





USA.gov is the U.S. government's official web portal to all federal, state and local government web resources and services.